�������l�o���
Date,Time,MP-1(��Sv/h),MP-2(��Sv/h),MP-3(��Sv/h),MP-4(��Sv/h),MP-5(��Sv/h),MP-6(��Sv/h),MP-7(��Sv/h),MP-8(��Sv/h),����,����(m/s),���J
2018/03/26,00:00,0.845,1.411,0.879,1.650,1.117,0.480,0.844,0.812,��,6.9,��
2018/03/26,00:10,0.843,1.412,0.882,1.649,1.118,0.482,0.844,0.811,��쐼,7.2,��
2018/03/26,00:20,0.841,1.413,0.878,1.647,1.115,0.483,0.844,0.811,��,7.2,��
2018/03/26,00:30,0.844,1.411,0.882,1.649,1.118,0.480,0.844,0.811,��,7.7,��
2018/03/26,00:40,0.843,1.412,0.882,1.649,1.119,0.482,0.842,0.812,��쐼,7.9,��
2018/03/26,00:50,0.844,1.413,0.884,1.652,1.117,0.481,0.841,0.810,��,7.4,��
2018/03/26,01:00,0.845,1.411,0.882,1.651,1.117,0.482,0.844,0.812,��쐼,7.0,��
2018/03/26,01:10,0.843,1.412,0.880,1.652,1.117,0.481,0.844,0.811,��쐼,5.0,��
2018/03/26,01:20,0.843,1.413,0.881,1.651,1.119,0.481,0.846,0.811,��쐼,4.6,��
2018/03/26,01:30,0.843,1.411,0.880,1.650,1.114,0.483,0.844,0.812,��,4.2,��
2018/03/26,01:40,0.844,1.413,0.884,1.648,1.118,0.483,0.845,0.812,��쐼,3.8,��
2018/03/26,01:50,0.843,1.412,0.881,1.652,1.118,0.481,0.844,0.813,��쐼,3.3,��
2018/03/26,02:00,0.841,1.412,0.882,1.649,1.117,0.480,0.845,0.812,�쐼,1.9,��
2018/03/26,02:10,0.843,1.414,0.881,1.651,1.115,0.482,0.845,0.811,�쐼,2.2,��
2018/03/26,02:20,0.843,1.411,0.883,1.648,1.115,0.480,0.845,0.811,��쐼,2.6,��
2018/03/26,02:30,0.842,1.411,0.881,1.649,1.114,0.482,0.845,0.813,��,3.1,��
2018/03/26,02:40,0.845,1.413,0.883,1.649,1.115,0.482,0.844,0.812,��쓌,3.8,��
2018/03/26,02:50,0.843,1.409,0.882,1.650,1.114,0.481,0.845,0.812,��,3.1,��
2018/03/26,03:00,0.845,1.411,0.883,1.648,1.120,0.481,0.843,0.811,��,5.1,��
2018/03/26,03:10,0.843,1.413,0.881,1.649,1.119,0.481,0.845,0.811,��,6.4,��
2018/03/26,03:20,0.841,1.413,0.883,1.650,1.117,0.482,0.846,0.810,��,6.5,��
2018/03/26,03:30,0.843,1.413,0.881,1.650,1.116,0.481,0.845,0.811,��,6.2,��
2018/03/26,03:40,0.845,1.412,0.879,1.651,1.117,0.482,0.845,0.810,��,5.9,��
2018/03/26,03:50,0.841,1.412,0.882,1.650,1.117,0.481,0.844,0.812,��,5.3,��
2018/03/26,04:00,0.843,1.413,0.883,1.650,1.117,0.481,0.843,0.813,��,5.0,��
2018/03/26,04:10,0.844,1.413,0.880,1.647,1.119,0.482,0.844,0.812,��,6.1,��
2018/03/26,04:20,0.844,1.412,0.879,1.647,1.118,0.481,0.843,0.809,��,6.4,��
2018/03/26,04:30,0.841,1.413,0.881,1.650,1.117,0.482,0.845,0.811,��,7.1,��
2018/03/26,04:40,0.843,1.411,0.882,1.650,1.115,0.481,0.843,0.813,��,6.3,��
2018/03/26,04:50,0.842,1.412,0.881,1.651,1.117,0.480,0.846,0.811,��쐼,6.1,��
2018/03/26,05:00,0.844,1.411,0.882,1.648,1.117,0.480,0.845,0.813,��,6.6,��
2018/03/26,05:10,0.844,1.412,0.881,1.650,1.117,0.479,0.845,0.810,��,6.5,��
2018/03/26,05:20,0.841,1.414,0.881,1.651,1.115,0.479,0.846,0.810,��,7.9,��
2018/03/26,05:30,0.842,1.409,0.882,1.649,1.118,0.481,0.845,0.812,��,6.9,��
2018/03/26,05:40,0.841,1.413,0.881,1.650,1.117,0.481,0.844,0.811,��,6.6,��
2018/03/26,05:50,0.843,1.413,0.882,1.648,1.118,0.482,0.844,0.812,��,5.8,��
2018/03/26,06:00,0.844,1.413,0.882,1.650,1.117,0.481,0.844,0.813,��,6.0,��
2018/03/26,06:10,0.843,1.412,0.880,1.649,1.117,0.483,0.845,0.811,��,6.1,��
2018/03/26,06:20,0.843,1.413,0.883,1.650,1.116,0.483,0.843,0.811,��,6.2,��
2018/03/26,06:30,0.842,1.411,0.882,1.650,1.117,0.480,0.844,0.812,��,6.4,��
2018/03/26,06:40,0.844,1.413,0.881,1.652,1.116,0.483,0.846,0.811,��,6.5,��
2018/03/26,06:50,0.843,1.412,0.883,1.651,1.118,0.481,0.845,0.812,��쓌,7.7,��
2018/03/26,07:00,0.844,1.413,0.882,1.653,1.120,0.483,0.846,0.813,��쓌,7.5,��
2018/03/26,07:10,0.842,1.415,0.882,1.651,1.119,0.483,0.846,0.813,��쓌,8.7,��
2018/03/26,07:20,0.845,1.415,0.881,1.657,1.119,0.482,0.846,0.811,��,6.3,��
2018/03/26,07:30,0.845,1.415,0.881,1.652,1.119,0.484,0.847,0.812,��쓌,6.6,��
2018/03/26,07:40,0.844,1.416,0.881,1.650,1.120,0.483,0.848,0.813,��쓌,6.8,��
2018/03/26,07:50,0.845,1.413,0.880,1.651,1.121,0.483,0.846,0.814,��쓌,6.7,��
2018/03/26,08:00,0.848,1.414,0.882,1.651,1.120,0.483,0.846,0.813,��쓌,6.5,��
2018/03/26,08:10,0.847,1.414,0.884,1.652,1.122,0.483,0.846,0.812,��쓌,7.6,��
2018/03/26,08:20,0.847,1.412,0.882,1.654,1.122,0.482,0.846,0.814,��쓌,8.4,��
2018/03/26,08:30,0.846,1.412,0.881,1.653,1.122,0.482,0.846,0.813,��,7.6,��
2018/03/26,08:40,0.846,1.414,0.883,1.653,1.122,0.482,0.845,0.813,��,7.1,��
2018/03/26,08:50,0.850,1.412,0.884,1.654,1.121,0.482,0.846,0.813,��,6.9,��
2018/03/26,09:00,0.847,1.413,0.883,1.654,1.119,0.480,0.846,0.813,��,7.6,��
2018/03/26,09:10,0.846,1.414,0.886,1.655,1.121,0.483,0.846,0.812,��쓌,8.8,��
2018/03/26,09:20,0.846,1.416,0.884,1.656,1.121,0.482,0.846,0.811,��쓌,8.0,��
2018/03/26,09:30,0.847,1.415,0.887,1.653,1.119,0.484,0.846,0.811,��,9.2,��
2018/03/26,09:40,0.848,1.418,0.882,1.653,1.117,0.484,0.845,0.809,��쓌,8.3,��
2018/03/26,09:50,0.848,1.419,0.886,1.658,1.120,0.482,0.847,0.811,��,9.1,��
2018/03/26,10:00,0.849,1.420,0.885,1.654,1.121,0.481,0.846,0.811,��쓌,10.3,��
2018/03/26,10:10,0.849,1.417,0.884,1.657,1.121,0.480,0.847,0.812,��,8.1,��
2018/03/26,10:20,0.850,1.419,0.884,1.656,1.121,0.480,0.847,0.809,��쓌,10.2,��
2018/03/26,10:30,0.849,1.417,0.883,1.658,1.121,0.482,0.847,0.811,��쓌,10.0,��
2018/03/26,10:40,0.849,1.420,0.883,1.656,1.123,0.485,0.845,0.810,��쓌,8.9,��
2018/03/26,10:50,0.849,1.420,0.884,1.658,1.122,0.486,0.850,0.811,��쓌,8.8,��
2018/03/26,11:00,0.849,1.420,0.884,1.656,1.123,0.484,0.847,0.811,��,6.1,��
2018/03/26,11:10,0.851,1.422,0.885,1.661,1.125,0.484,0.850,0.812,-,-,��
2018/03/26,11:20,0.852,1.420,0.887,1.658,1.125,0.486,0.848,0.812,-,-,-
2018/03/26,11:30,0.854,1.422,0.887,1.660,1.126,0.486,0.849,0.813,-,-,-
2018/03/26,11:40,0.855,1.422,0.886,1.662,1.124,0.486,0.849,0.812,-,-,-
2018/03/26,11:50,0.852,1.424,0.888,1.662,1.125,0.486,0.850,0.813,-,-,-
2018/03/26,12:00,0.852,1.424,0.889,1.663,1.126,0.486,0.850,0.812,-,-,-
2018/03/26,12:10,0.856,1.425,0.888,1.663,1.128,0.485,0.850,0.813,-,-,-
2018/03/26,12:20,0.854,1.426,0.890,1.663,1.128,0.484,0.849,0.813,-,-,-
2018/03/26,12:30,0.857,1.427,0.889,1.665,1.130,0.485,0.849,0.812,-,-,-
2018/03/26,12:40,0.858,1.426,0.890,1.663,1.129,0.486,0.851,0.812,-,-,-
2018/03/26,12:50,0.857,1.423,0.889,1.665,1.128,0.485,0.850,0.813,-,-,-
2018/03/26,13:00,0.857,1.428,0.888,1.664,1.129,0.486,0.851,0.812,-,-,-
2018/03/26,13:10,0.857,1.427,0.889,1.666,1.129,0.486,0.851,0.813,-,-,-
2018/03/26,13:20,0.860,1.426,0.892,1.664,1.129,0.486,0.852,0.814,-,-,-
2018/03/26,13:30,0.859,1.427,0.892,1.667,1.130,0.485,0.850,0.817,-,-,-
2018/03/26,13:40,0.861,1.424,0.891,1.667,1.132,0.485,0.851,0.815,���쐼,4.4,��
2018/03/26,13:50,0.860,1.424,0.892,1.668,1.130,0.485,0.851,0.814,���쐼,5.7,��
2018/03/26,14:00,0.862,1.429,0.894,1.669,1.132,0.487,0.853,0.813,���쐼,5.8,��
2018/03/26,14:10,0.858,1.423,0.891,1.668,1.131,0.485,0.852,0.813,���쐼,6.0,��
2018/03/26,14:20,0.861,1.429,0.892,1.671,1.130,0.487,0.851,0.815,���쐼,5.6,��
2018/03/26,14:30,0.861,1.427,0.892,1.671,1.132,0.487,0.852,0.814,��,6.9,��
2018/03/26,14:40,0.860,1.429,0.893,1.670,1.132,0.487,0.852,0.817,��,6.7,��
2018/03/26,14:50,0.860,1.427,0.893,1.667,1.132,0.486,0.852,0.815,��,6.1,��
2018/03/26,15:00,0.861,1.427,0.894,1.668,1.132,0.487,0.853,0.815,��,6.1,��
2018/03/26,15:10,0.859,1.427,0.893,1.670,1.134,0.486,0.852,0.816,��,6.2,��
2018/03/26,15:20,0.860,1.430,0.893,1.668,1.131,0.487,0.852,0.815,�k�k��,3.7,��
2018/03/26,15:30,0.861,1.430,0.892,1.670,1.132,0.487,0.851,0.814,�k�k��,6.2,��
2018/03/26,15:40,0.861,1.425,0.892,1.672,1.133,0.485,0.851,0.815,�k��,5.4,��
2018/03/26,15:50,0.858,1.428,0.895,1.669,1.131,0.486,0.850,0.814,�k��,4.2,��
2018/03/26,16:00,0.858,1.428,0.890,1.668,1.131,0.487,0.852,0.814,�k��,3.2,��
2018/03/26,16:10,0.859,1.429,0.890,1.672,1.132,0.485,0.851,0.814,�k�k��,1.9,��
2018/03/26,16:20,0.859,1.429,0.895,1.670,1.132,0.486,0.849,0.815,���k��,1.7,��
2018/03/26,16:30,0.858,1.426,0.890,1.671,1.133,0.486,0.850,0.815,�k��,1.9,��
2018/03/26,16:40,0.858,1.430,0.892,1.668,1.131,0.487,0.850,0.815,���쓌,0.6,��
2018/03/26,16:50,0.858,1.431,0.891,1.669,1.131,0.487,0.850,0.814,���k��,1.2,��
2018/03/26,17:00,0.858,1.427,0.891,1.671,1.132,0.488,0.850,0.814,�k��,1.5,��
2018/03/26,17:10,0.860,1.431,0.892,1.668,1.131,0.487,0.849,0.813,�k�k��,1.1,��
2018/03/26,17:20,0.858,1.432,0.894,1.670,1.133,0.487,0.850,0.815,�k,0.9,��
2018/03/26,17:30,0.858,1.430,0.892,1.669,1.133,0.487,0.848,0.815,�k�k��,0.9,��
2018/03/26,17:40,0.860,1.434,0.894,1.668,1.132,0.488,0.850,0.818,-,CALM,��
2018/03/26,17:50,0.860,1.432,0.891,1.670,1.131,0.488,0.850,0.816,���k��,0.6,��
2018/03/26,18:00,0.861,1.432,0.894,1.671,1.132,0.489,0.851,0.818,�k��,1.4,��
2018/03/26,18:10,0.862,1.431,0.892,1.671,1.136,0.486,0.849,0.817,�k��,0.9,��
2018/03/26,18:20,0.861,1.432,0.895,1.671,1.134,0.488,0.849,0.816,-,CALM,��
2018/03/26,18:30,0.859,1.430,0.896,1.670,1.134,0.486,0.850,0.817,-,CALM,��
2018/03/26,18:40,0.858,1.427,0.893,1.671,1.133,0.486,0.849,0.815,�쓌,0.8,��
2018/03/26,18:50,0.860,1.432,0.891,1.671,1.131,0.488,0.850,0.816,�쐼,0.8,��
2018/03/26,19:00,0.859,1.431,0.893,1.671,1.132,0.486,0.850,0.815,��,2.2,��
2018/03/26,19:10,0.858,1.434,0.894,1.669,1.133,0.487,0.850,0.814,���k��,4.4,��
2018/03/26,19:20,0.858,1.431,0.893,1.671,1.133,0.486,0.849,0.816,���k��,5.9,��
2018/03/26,19:30,0.858,1.432,0.894,1.671,1.132,0.486,0.848,0.816,���k��,6.0,��
2018/03/26,19:40,0.859,1.432,0.894,1.672,1.134,0.485,0.850,0.815,���k��,4.9,��
2018/03/26,19:50,0.859,1.430,0.894,1.670,1.135,0.486,0.851,0.815,���k��,4.5,��
2018/03/26,20:00,0.858,1.431,0.894,1.673,1.133,0.486,0.850,0.816,���k��,4.5,��
2018/03/26,20:10,0.859,1.431,0.893,1.670,1.133,0.487,0.851,0.817,���k��,2.6,��
2018/03/26,20:20,0.859,1.431,0.893,1.670,1.132,0.486,0.852,0.816,��,1.4,��
2018/03/26,20:30,0.859,1.429,0.894,1.669,1.135,0.486,0.850,0.816,���k��,1.5,��
2018/03/26,20:40,0.857,1.430,0.892,1.672,1.132,0.483,0.853,0.815,���k��,3.0,��
2018/03/26,20:50,0.858,1.430,0.895,1.673,1.133,0.485,0.851,0.817,���k��,3.7,��
2018/03/26,21:00,0.859,1.430,0.893,1.670,1.132,0.485,0.851,0.817,���k��,4.2,��
2018/03/26,21:10,0.858,1.432,0.892,1.672,1.131,0.484,0.851,0.814,���k��,3.4,��
2018/03/26,21:20,0.859,1.428,0.893,1.673,1.133,0.486,0.851,0.813,��,2.2,��
2018/03/26,21:30,0.857,1.432,0.892,1.671,1.134,0.485,0.850,0.814,���쐼,1.5,��
2018/03/26,21:40,0.859,1.432,0.892,1.669,1.133,0.485,0.848,0.814,��,2.9,��
2018/03/26,21:50,0.858,1.432,0.891,1.668,1.133,0.485,0.848,0.814,��,2.0,��
2018/03/26,22:00,0.859,1.431,0.893,1.667,1.132,0.486,0.849,0.816,���k��,1.1,��
2018/03/26,22:10,0.859,1.428,0.892,1.668,1.132,0.485,0.850,0.815,�k��,2.0,��
2018/03/26,22:20,0.856,1.430,0.893,1.669,1.133,0.483,0.847,0.815,�k��,2.5,��
2018/03/26,22:30,0.859,1.431,0.890,1.668,1.132,0.485,0.849,0.813,�k�k��,2.2,��
2018/03/26,22:40,0.857,1.431,0.891,1.670,1.131,0.484,0.849,0.815,�k,1.5,��
2018/03/26,22:50,0.857,1.431,0.892,1.668,1.133,0.484,0.849,0.816,�k�k��,2.3,��
2018/03/26,23:00,0.855,1.430,0.890,1.670,1.132,0.485,0.848,0.815,�k�k��,1.9,��
2018/03/26,23:10,0.856,1.432,0.889,1.667,1.132,0.484,0.848,0.814,�k��,1.5,��
2018/03/26,23:20,0.857,1.431,0.892,1.670,1.132,0.482,0.850,0.814,���k��,1.7,��
2018/03/26,23:30,0.857,1.427,0.891,1.666,1.132,0.484,0.849,0.814,���k��,1.5,��
2018/03/26,23:40,0.855,1.431,0.892,1.668,1.132,0.483,0.848,0.815,���쓌,1.1,��
2018/03/26,23:50,0.855,1.427,0.891,1.671,1.132,0.483,0.849,0.814,��,1.1,��
